TimeCDT,TemperatureF,Dew PointF,Humidity,Sea Level PressureIn,VisibilityMPH,Wind Direction,Wind SpeedMPH,Gust SpeedMPH,PrecipitationIn,Events,Conditions,WindDirDegrees,DateUTC
12:53 AM,48.9,39.9,71,29.81,10.0,NE,11.5,-,N/A,,Overcast,50,2013-03-17 05:53:00
1:53 AM,48.0,41.0,77,29.81,10.0,NE,10.4,-,N/A,,Overcast,50,2013-03-17 06:53:00
2:53 AM,46.9,41.0,80,29.79,9.0,NE,13.8,19.6,0.00,Rain,Light Rain,40,2013-03-17 07:53:00
3:53 AM,46.0,39.0,76,29.80,10.0,NE,12.7,-,0.00,,Overcast,50,2013-03-17 08:53:00
4:53 AM,45.0,39.0,80,29.78,9.0,ENE,15.0,23.0,N/A,,Overcast,60,2013-03-17 09:53:00
5:53 AM,44.1,39.0,82,29.82,8.0,NE,17.3,-,N/A,,Overcast,50,2013-03-17 10:53:00
6:50 AM,42.8,39.2,87,29.87,5.0,NE,12.7,-,N/A,,Overcast,50,2013-03-17 11:50:00
6:53 AM,43.0,39.9,89,29.86,4.0,NE,15.0,-,N/A,,Overcast,50,2013-03-17 11:53:00
7:27 AM,42.8,41.0,93,29.87,3.0,ENE,15.0,19.6,0.00,,Overcast,60,2013-03-17 12:27:00
7:41 AM,41.0,41.0,100,29.86,2.0,ENE,19.6,24.2,0.00,,Overcast,60,2013-03-17 12:41:00
7:53 AM,41.0,41.0,100,29.86,2.0,ENE,15.0,-,0.00,,Overcast,60,2013-03-17 12:53:00
8:53 AM,39.9,39.9,100,29.85,2.5,East,12.7,-,0.01,Rain,Light Rain,80,2013-03-17 13:53:00
9:53 AM,41.0,41.0,100,29.85,2.5,East,11.5,-,0.00,Rain,Light Rain,90,2013-03-17 14:53:00
10:32 AM,41.0,41.0,100,29.83,3.0,East,16.1,21.9,0.01,Rain,Light Rain,80,2013-03-17 15:32:00
10:53 AM,41.0,41.0,100,29.83,6.0,East,11.5,23.0,0.01,,Overcast,80,2013-03-17 15:53:00
11:28 AM,41.0,41.0,100,29.83,1.8,East,15.0,-,0.01,Rain,Light Rain,90,2013-03-17 16:28:00
11:51 AM,41.0,41.0,100,29.82,2.5,East,12.7,-,0.03,Rain,Light Rain,100,2013-03-17 16:51:00
11:53 AM,41.0,41.0,100,29.82,3.0,East,12.7,-,0.03,Rain,Light Rain,90,2013-03-17 16:53:00
12:53 PM,42.1,42.1,100,29.78,6.0,ESE,11.5,-,0.00,,Overcast,110,2013-03-17 17:53:00
1:53 PM,43.0,43.0,100,29.74,3.0,East,9.2,-,0.00,Rain,Light Rain,90,2013-03-17 18:53:00
3:31 PM,42.8,42.8,100,29.70,2.5,East,9.2,-,0.02,Rain,Light Rain,80,2013-03-17 20:31:00
3:41 PM,42.8,42.8,100,29.69,3.0,East,8.1,-,0.02,Rain,Light Rain,80,2013-03-17 20:41:00
3:48 PM,42.8,42.8,100,29.69,1.8,ENE,5.8,-,0.04,Rain,Rain,70,2013-03-17 20:48:00
3:53 PM,44.1,44.1,100,29.69,1.5,ENE,5.8,-,0.05,Rain,Rain,70,2013-03-17 20:53:00
3:59 PM,44.6,44.6,100,29.69,3.0,ENE,6.9,-,0.00,Rain,Light Rain,60,2013-03-17 20:59:00
4:09 PM,44.6,44.6,100,29.68,1.8,NE,6.9,-,0.02,Rain,Rain,40,2013-03-17 21:09:00
4:21 PM,44.6,44.6,100,29.68,3.0,NNE,4.6,-,0.04,Rain,Light Rain,20,2013-03-17 21:21:00
4:50 PM,44.6,44.6,100,29.68,2.0,North,6.9,-,0.05,Rain,Rain,10,2013-03-17 21:50:00
4:53 PM,44.1,44.1,100,29.68,2.5,NNE,5.8,-,0.05,Rain,Light Rain,20,2013-03-17 21:53:00
5:02 PM,44.6,44.6,100,29.68,4.0,NE,5.8,-,0.00,Rain,Light Rain,40,2013-03-17 22:02:00
5:17 PM,44.6,44.6,100,29.67,2.0,NNE,8.1,-,0.01,,Overcast,20,2013-03-17 22:17:00
5:38 PM,44.6,44.6,100,29.67,3.0,NE,6.9,-,0.01,Rain,Light Rain,40,2013-03-17 22:38:00
5:46 PM,44.6,44.6,100,29.67,6.0,NNE,6.9,-,0.01,,Overcast,30,2013-03-17 22:46:00
5:53 PM,44.1,44.1,100,29.68,8.0,NE,5.8,-,0.01,,Overcast,40,2013-03-17 22:53:00
6:53 PM,44.1,44.1,100,29.69,10.0,East,4.6,-,N/A,,Overcast,90,2013-03-17 23:53:00
7:01 PM,44.6,44.6,100,29.68,10.0,East,4.6,-,N/A,,Overcast,80,2013-03-18 00:01:00
7:24 PM,44.6,44.6,100,29.70,10.0,North,3.5,-,N/A,,Overcast,360,2013-03-18 00:24:00
7:53 PM,44.1,44.1,100,29.69,7.0,East,3.5,-,N/A,,Overcast,90,2013-03-18 00:53:00
8:11 PM,42.8,42.8,100,29.68,2.0,ENE,3.5,-,N/A,,Overcast,70,2013-03-18 01:11:00
8:20 PM,42.8,42.8,100,29.68,1.8,Calm,Calm,-,N/A,,Overcast,0,2013-03-18 01:20:00
8:53 PM,44.1,44.1,100,29.69,1.2,Calm,Calm,-,0.01,,Overcast,0,2013-03-18 01:53:00
9:53 PM,44.1,44.1,100,29.70,1.5,Calm,Calm,-,N/A,,Overcast,0,2013-03-18 02:53:00
10:53 PM,44.1,44.1,100,29.72,2.0,Calm,Calm,-,0.01,,Overcast,0,2013-03-18 03:53:00
11:01 PM,44.6,44.6,100,29.71,1.8,Calm,Calm,-,N/A,,Overcast,0,2013-03-18 04:01:00
11:42 PM,44.6,44.6,100,29.71,2.5,WSW,6.9,-,N/A,,Overcast,250,2013-03-18 04:42:00
11:53 PM,45.0,45.0,100,29.72,3.0,WSW,8.1,-,N/A,,Overcast,250,2013-03-18 04:53:00